Auburn, AL

12:11 AM CST on February 25, 2017 (GMT -0600)
Auburn-opelika-pitts

Weather History for KAUO - October, 2013

Change the Weather History Date:

Tuesday, October 8, 2013

  Actual Average Record
Temperature  
Mean Temperature 65 °F -  
Max Temperature 77 °F - 90 °F (2007)
Min Temperature 52 °F - 34 °F (1964)
Degree Days  
Heating Degree Days 0    
Month to date heating degree days 1  
Since 1 July heating degree days 1  
Cooling Degree Days 0    
Month to date cooling degree days 45  
Year to date cooling degree days 1607  
Growing Degree Days 14 (Base 50)    
Moisture  
Dew Point 54 °F    
Average Humidity 74    
Maximum Humidity 88    
Minimum Humidity 57    
Precipitation  
Precipitation 0.00 in - 1.15 in (2008)
Month to date precipitation 0.23  
Year to date precipitation 39.19  
Sea Level Pressure  
Sea Level Pressure 30.03 in    
Wind  
Wind Speed 10 mph (NE)    
Max Wind Speed 13 mph    
Max Gust Speed 18 mph    
Visibility 10 miles    
Events      
T = Trace of Precipitation, MM = Missing Value Source: NWS Daily Summary

Daily Weather History Graph

Daily Weather History Graph

Search for Another Location

Airport or City:

Trip Planner

Search our weather history database for the weather conditions in past years. The results will help you decide how hot, cold, wet, or windy it might be!

Date:

Astronomy

Oct. 08, 2013 Rise Set
Actual Time 6:40 AM CDT 6:17 PM CDT
Civil Twilight 6:16 AM CDT 6:41 PM CDT
Nautical Twilight 5:47 AM CDT 7:10 PM CDT
Astronomical Twilight 5:19 AM CDT 7:38 PM CDT
Moon 10:22 AM CDT (10/8) 9:05 PM CDT (10/8)
Length of Visible Light 12h 25m
Length of Day
11h 36m
Waxing Crescent, 16% of the Moon is Illuminated
Oct 8
Waxing Crescent
Oct 11
First Quarter
Oct 18
Full
Oct 26
Last Quarter
Nov 3
New

Hourly Weather History & Observations

Time (CDT) Temp. Dew Point Humidity Pressure Visibility Wind Dir Wind Speed Gust Speed Precip Events Conditions
12:15 AM 55.4 °F 50.0 °F 82% 29.97 in 10.0 mi North 10.4 mph - N/A   Clear
12:35 AM 55.4 °F 50.0 °F 82% 29.97 in 10.0 mi North 9.2 mph - N/A   Clear
12:55 AM 55.4 °F 48.2 °F 77% 29.96 in 10.0 mi North 10.4 mph - N/A   Clear
1:15 AM 53.6 °F 48.2 °F 82% 29.96 in 10.0 mi North 10.4 mph - N/A   Clear
1:35 AM 53.6 °F 48.2 °F 82% 29.97 in 10.0 mi North 9.2 mph - N/A   Clear
1:55 AM 53.6 °F 48.2 °F 82% 29.97 in 10.0 mi North 8.1 mph - N/A   Clear
2:15 AM 53.6 °F 48.2 °F 82% 29.97 in 10.0 mi North 8.1 mph - N/A   Clear
2:35 AM 53.6 °F 48.2 °F 82% 29.96 in 10.0 mi North 10.4 mph - N/A   Clear
2:55 AM 53.6 °F 48.2 °F 82% 29.95 in 10.0 mi NNE 11.5 mph - N/A   Clear
3:15 AM 53.6 °F 48.2 °F 82% 29.95 in 10.0 mi North 11.5 mph - N/A   Clear
3:35 AM 53.6 °F 48.2 °F 82% 29.95 in 10.0 mi North 10.4 mph - N/A   Mostly Cloudy
3:55 AM 53.6 °F 48.2 °F 82% 29.95 in 10.0 mi NNE 10.4 mph - N/A   Overcast
4:15 AM 53.6 °F 48.2 °F 82% 29.95 in 10.0 mi NNE 8.1 mph - N/A   Overcast
4:35 AM 53.6 °F 48.2 °F 82% 29.96 in 10.0 mi North 10.4 mph - N/A   Scattered Clouds
4:55 AM 53.6 °F 48.2 °F 82% 29.97 in 10.0 mi North 9.2 mph - N/A   Clear
5:15 AM 51.8 °F 48.2 °F 88% 29.97 in 10.0 mi North 10.4 mph - N/A   Clear
5:35 AM 51.8 °F 48.2 °F 88% 29.97 in 10.0 mi NNE 10.4 mph - N/A   Clear
5:55 AM 53.6 °F 48.2 °F 82% 29.98 in 10.0 mi NNE 9.2 mph - N/A   Mostly Cloudy
6:15 AM 55.4 °F 51.8 °F 88% 29.98 in 10.0 mi NNE 10.4 mph - N/A   Overcast
6:35 AM 55.4 °F 51.8 °F 88% 29.99 in 10.0 mi NE 11.5 mph - N/A   Overcast
6:55 AM 57.2 °F 51.8 °F 82% 30.00 in 10.0 mi NE 12.7 mph - N/A   Overcast
7:15 AM 57.2 °F 51.8 °F 82% 30.00 in 10.0 mi NE 9.2 mph - N/A   Overcast
7:35 AM 59.0 °F 51.8 °F 77% 30.01 in 10.0 mi ENE 11.5 mph - N/A   Overcast
7:55 AM 59.0 °F 51.8 °F 77% 30.01 in 2.5 mi NE 12.7 mph 17.3 mph N/A   Overcast
8:15 AM 60.8 °F 51.8 °F 72% 30.02 in 10.0 mi ENE 10.4 mph 16.1 mph N/A   Overcast
8:35 AM 60.8 °F 53.6 °F 77% 30.03 in 10.0 mi ENE 10.4 mph - N/A   Overcast
8:55 AM 60.8 °F 53.6 °F 77% 30.04 in 10.0 mi ENE 11.5 mph - N/A   Overcast
9:15 AM 62.6 °F 53.6 °F 72% 30.04 in 10.0 mi ENE 12.7 mph 17.3 mph N/A   Overcast
9:35 AM 62.6 °F 53.6 °F 72% 30.04 in 10.0 mi ENE 9.2 mph - N/A   Overcast
9:55 AM 64.4 °F 53.6 °F 68% 30.04 in 10.0 mi ENE 11.5 mph 16.1 mph N/A   Overcast
10:15 AM 64.4 °F 53.6 °F 68% 30.05 in 10.0 mi ENE 8.1 mph - N/A   Overcast
10:35 AM 64.4 °F 53.6 °F 68% 30.05 in 10.0 mi ENE 10.4 mph - N/A   Overcast
10:55 AM 66.2 °F 55.4 °F 68% 30.05 in 10.0 mi ENE 10.4 mph 17.3 mph N/A   Overcast
11:15 AM 66.2 °F 55.4 °F 68% 30.05 in 10.0 mi East 12.7 mph 18.4 mph N/A   Overcast
11:35 AM 66.2 °F 55.4 °F 68% 30.05 in 10.0 mi NE 11.5 mph - N/A   Overcast
11:55 AM 69.8 °F 57.2 °F 64% 30.05 in 10.0 mi ENE 12.7 mph 18.4 mph N/A   Overcast
12:15 PM 69.8 °F 57.2 °F 64% 30.05 in 10.0 mi ENE 11.5 mph - N/A   Overcast
12:35 PM 69.8 °F 57.2 °F 64% 30.05 in 10.0 mi NE 8.1 mph - N/A   Overcast
12:55 PM 69.8 °F 57.2 °F 64% 30.04 in 10.0 mi ENE 10.4 mph - N/A   Overcast
1:15 PM 69.8 °F 57.2 °F 64% 30.03 in 10.0 mi NNE 5.8 mph - N/A   Overcast
1:35 PM 69.8 °F 57.2 °F 64% 30.03 in 10.0 mi NNE 6.9 mph - N/A   Overcast
1:55 PM 71.6 °F 57.2 °F 60% 30.03 in 10.0 mi NNE 8.1 mph - N/A   Overcast
2:15 PM 71.6 °F 59.0 °F 64% 30.03 in 10.0 mi NE 9.2 mph - N/A   Overcast
2:35 PM 73.4 °F 59.0 °F 61% 30.02 in 10.0 mi NNE 9.2 mph - N/A   Overcast
2:55 PM 75.2 °F 60.8 °F 61% 30.02 in 10.0 mi NE 10.4 mph - N/A   Mostly Cloudy
3:15 PM 75.2 °F 60.8 °F 61% 30.02 in 10.0 mi NE 3.5 mph - N/A   Partly Cloudy
3:35 PM 77.0 °F 60.8 °F 57% 30.02 in 10.0 mi NNE 10.4 mph - N/A   Partly Cloudy
3:55 PM 77.0 °F 60.8 °F 57% 30.02 in 8.0 mi ENE 10.4 mph 17.3 mph N/A   Mostly Cloudy
4:15 PM 75.2 °F 60.8 °F 61% 30.03 in 10.0 mi ENE 10.4 mph - N/A   Mostly Cloudy
4:35 PM 73.4 °F 60.8 °F 65% 30.03 in 10.0 mi ENE 10.4 mph - N/A   Overcast
4:55 PM 73.4 °F 60.8 °F 65% 30.04 in 10.0 mi East 8.1 mph - N/A   Overcast
5:15 PM 71.6 °F 60.8 °F 69% 30.05 in 10.0 mi East 10.4 mph 17.3 mph N/A   Overcast
5:35 PM 69.8 °F 60.8 °F 73% 30.05 in 10.0 mi East 8.1 mph - N/A   Overcast
5:55 PM 69.8 °F 60.8 °F 73% 30.06 in 10.0 mi ENE 10.4 mph - N/A   Overcast
6:15 PM 69.8 °F 57.2 °F 64% 30.06 in 10.0 mi ENE 10.4 mph - N/A   Overcast
6:35 PM 68.0 °F 57.2 °F 68% 30.07 in 10.0 mi ENE 12.7 mph 16.1 mph N/A   Overcast
6:55 PM 66.2 °F 57.2 °F 73% 30.07 in 10.0 mi NE 9.2 mph - N/A   Overcast
7:15 PM 66.2 °F 57.2 °F 73% 30.07 in 10.0 mi ENE 11.5 mph - N/A   Mostly Cloudy
7:35 PM 66.2 °F 57.2 °F 73% 30.08 in 10.0 mi NE 12.7 mph 18.4 mph N/A   Mostly Cloudy
7:55 PM 64.4 °F 55.4 °F 73% 30.09 in 10.0 mi NE 10.4 mph - N/A   Scattered Clouds
8:15 PM 64.4 °F 55.4 °F 73% 30.09 in 10.0 mi ENE 10.4 mph 18.4 mph N/A   Clear
8:35 PM 62.6 °F 55.4 °F 77% 30.09 in 10.0 mi ENE 13.8 mph 20.7 mph N/A   Clear
8:55 PM 62.6 °F 53.6 °F 72% 30.09 in 10.0 mi ENE 10.4 mph - N/A   Clear
9:15 PM 62.6 °F 53.6 °F 72% 30.10 in 10.0 mi ENE 12.7 mph 19.6 mph N/A   Clear
9:35 PM 60.8 °F 53.6 °F 77% 30.10 in 10.0 mi East 10.4 mph - N/A   Clear
9:55 PM 60.8 °F 55.4 °F 82% 30.11 in 10.0 mi East 11.5 mph - N/A   Clear
10:15 PM 60.8 °F 55.4 °F 82% 30.11 in 10.0 mi East 11.5 mph - N/A   Partly Cloudy
10:35 PM 60.8 °F 55.4 °F 82% 30.11 in 10.0 mi East 9.2 mph - N/A   Clear
10:55 PM 60.8 °F 55.4 °F 82% 30.11 in 10.0 mi ENE 11.5 mph - N/A   Clear
11:15 PM 60.8 °F 55.4 °F 82% 30.11 in 10.0 mi ENE 8.1 mph - N/A   Clear
11:35 PM 60.8 °F 55.4 °F 82% 30.11 in 10.0 mi ENE 8.1 mph - N/A   Mostly Cloudy
11:55 PM 60.8 °F 55.4 °F 82% 30.11 in 10.0 mi ENE 9.2 mph - N/A   Scattered Clouds